Location: Anuling
(14.1239°N, 120.8922°E)
Time: 04:13:15
(UTC+00:00)

ARIANE 5 DEB (SYLDA) - Pass Details

Date: 14 January 2026
Orbit: 882 x 35865 km, 2.4° (Epoch: 10 February)

Event Time Altitude Azimuth Distance (km) Brightness Sun altitude
Rises 11:20:36 0° 252° (WSW) 4,878 8.2 -22.3°
Reaches altitude 10° 11:24:49 10° 237° (WSW) 2,988 6.6 -23.3°
Maximum altitude 11:29:24 25° 180° (S) 1,706 4.4 -24.3°
Enters shadow 11:31:24 19° 144° (SE) 1,977 4.4 -24.8°
